Regional Weather Roundup
Issued by NWS Midland/Odessa, TX

Skip options and go directly to product.
Home | Oldest Version | Next Version | Current Version | All | Text Only | Save Text | Print | Product List | Glossary On

Skip product version selection by date and time.   
371
ASUS44 KMAF 281910
RWRMAF
MIDLAND AREA WEATHER ROUNDUP
NATIONAL WEATHER SERVICE MIDLAND TX
200 PM CDT SUN AUG 28 2016

...IN SOUTHWEST TEXAS AND SOUTHEAST NEW MEXICO...

CITY           SKY/WX    TMP DP  RH WIND       PRES   REMARKS
ALPINE         MOSUNNY   70  61  73 S10       30.23R THUNDER
ANDREWS        NOT AVBL
ARTESIA        CLOUDY    79  64  61 VRB5G12   30.14F
BIG SPRING     MOSUNNY   85  65  51 SE5       30.12S
CARLSBAD       SUNNY     82  63  52 E6        30.10F
DRYDEN           N/A     88  69  53 VRB5      30.02F
FORT STOCKTON  MOSUNNY   89  62  40 N5        30.07F
GUAD PASS      SUNNY     74  61  63 E16       30.24F
HOBBS          MOSUNNY   82  61  47 E13       30.14F
MARFA          PTSUNNY  N/A N/A N/A NW12G17   30.18F
MIDLAND AIRPK  MOSUNNY   88  62  42 E10       30.10S
MIDLAND INTL   PTSUNNY   86  63  45 E7        30.09F
ODESSA         MOSUNNY   87  63  44 VRB6      30.10F
PECOS          SUNNY     87  62  41 CALM      30.05F
PRESIDIO       NOT AVBL
SEMINOLE       SUNNY     83  62  48 SE9       30.14F
SNYDER           N/A     83  66  56 CALM      30.10F
WINK           SUNNY     87  62  43 E12       30.06F
$$
...OTHER STATIONS IN TEXAS...

CITY           SKY/WX    TMP DP  RH WIND       PRES   REMARKS
ABILENE        HVY RAIN  74  71  91 E31G37    30.10R VSB 3/4
AMARILLO       CLOUDY    83  58  42 SW16      30.16S
AUSTIN         PTSUNNY   87  72  60 NE7       30.00F
BROWNSVILLE    MOSUNNY   96  75  50 NE10G20   29.92F HX 108
CORPUS CHRISTI MOSUNNY   93  72  50 N13G21    29.93F HX 101
DALLAS FTW     MOSUNNY   90  66  45 E8        30.04F
DEL RIO        MOSUNNY   89  70  53 VRB3      29.98F
EL PASO        MOSUNNY   82  59  45 N5        30.12F
HOUSTON INT    CLOUDY    86  75  69 NE16      29.96F
LUBBOCK        PTSUNNY   88  60  38 E8        30.13F
SAN ANGELO     SUNNY     91  67  44 E7        30.05F
SAN ANTONIO    MOSUNNY   89  69  51 E10G18    30.00F
WACO           PTSUNNY   89  73  59 E8        30.03F
WICHITA FALLS  NOT AVBL
$$
...OTHER LOCATIONS IN NEW MEXICO...

CITY           SKY/WX    TMP DP  RH WIND       PRES   REMARKS
ALAMAGORDO     SUNNY     81  54  39 S6        30.16F
ALBUQUERQUE    PTSUNNY   77  44  30 VRB3      30.24F
CANNON AFB     CLOUDY    80  59  48 SW13      30.17F
CLOVIS         SUNNY     79  61  53 SW7       30.18F
HOLLOMAN AFB   SUNNY     81  57  44 W8        30.13F
ROSWELL        SUNNY     81  58  45 S8        30.14F
RUIDOSO        LGT RAIN  64  55  72 SE5       30.33F
SANTA FE       SUNNY     76  33  21 SW8G20    30.28F
TRUTH OR CONSE PTSUNNY   74  51  44 NW13      30.21F
TUCUMCARI      CLOUDY    88  53  30 VRB7      30.11F
$$

USA.gov is the U.S. government's official web portal to all federal, state and local government web resources and services.